Theta_e
315 315 313 308 303 307 300 298 296 300 305 311 316 318 319 320 321 322 327 328 329 329 330 333 338 342 344 346 346 346 347 346
314 315 314 310 313 302 302 294 292 298 298 303 310 315 316 317 318 318 323 327 327 328 330 334 338 342 343 345 347 348 347 349
309 305 307 308 306 306 304 300 295 293 298 307 312 315 315 316 318 319 322 324 326 329 332 335 338 344 344 344 343 346 347 346
300 303 315 309 307 305 299 298 298 297 299 310 313 315 316 316 315 317 322 323 328 331 333 336 339 343 343 345 345 346 348 347
296 302 309 307 309 306 305 301 297 297 300 313 311 312 314 314 319 329 334 336 338 339 336 335 339 344 347 348 348 348 348 347
294 298 305 306 308 310 305 300 298 300 301 307 310 319 328 332 337 339 340 343 345 347 347 347 345 345 344 343 346 345 343 342
297 302 308 311 312 308 307 304 304 304 307 309 315 325 331 337 340 341 342 344 346 344 345 345 343 342 342 340 340 339 338 338
298 305 309 308 312 311 310 306 305 307 305 313 330 335 334 336 339 340 341 342 342 343 343 343 342 340 340 338 338 339 336 335
294 304 305 301 309 310 307 308 308 306 310 331 331 332 333 336 338 338 339 340 339 339 339 339 339 337 335 334 335 334 331 330
294 300 295 305 312 314 311 311 313 314 327 332 332 332 336 338 338 338 339 338 337 336 335 334 335 335 334 333 332 330 326 324
297 296 301 306 307 308 307 307 316 323 329 330 333 334 331 338 340 339 338 337 336 335 334 332 332 331 331 330 330 327 324 322
296 297 296 306 310 316 317 306 323 330 330 331 332 323 326 335 339 338 339 337 336 335 333 331 329 328 329 328 329 327 325 324
297 297 302 309 315 320 306 308 328 332 332 332 328 326 333 338 337 338 337 336 335 333 330 328 328 328 327 328 327 329 329 327
296 295 298 312 316 311 313 327 332 333 334 333 330 333 336 336 335 334 333 333 333 332 329 329 329 328 327 328 329 327 325 323
300 302 307 318 317 312 330 330 333 334 335 333 332 333 334 333 334 333 332 332 334 332 328 328 330 330 328 329 326 323 321 318
301 302 309 314 316 320 332 333 335 336 334 334 332 334 333 333 333 332 332 332 333 329 327 326 329 330 330 331 326 322 319 316
300 304 313 316 321 327 332 336 336 336 335 334 334 333 333 332 332 332 332 332 332 329 327 328 329 330 332 331 325 319 318 316
300 304 309 313 324 332 333 334 335 334 334 335 335 333 334 332 333 333 331 332 330 327 327 327 328 328 329 330 327 323 320 319
315 318 317 318 331 334 334 335 336 336 335 334 335 335 334 332 332 328 331 331 329 328 326 326 328 328 328 324 326 325 323 324
Wind_Speed
15 7 7 7 3 5 10 3 4 3 7 9 2 5 4 6 6 9 13 12 13 9 9 10 12 13 15 12 11 7 10 6
2 6 3 5 11 4 4 5 2 4 3 5 2 7 3 6 8 6 8 7 7 7 8 9 9 9 9 10 13 13 9 8
5 7 9 2 3 6 7 4 6 3 7 8 10 10 9 8 8 9 8 8 8 7 7 7 7 8 9 8 8 7 7 6
13 6 4 3 6 6 7 5 3 3 7 2 9 9 9 8 4 3 4 3 6 6 6 6 5 4 3 3 1 2 2 3
10 8 6 3 5 6 8 5 6 7 7 5 7 7 3 9 6 7 7 9 8 8 7 7 7 7 7 6 4 2 5 6
9 9 5 7 4 4 9 5 7 7 4 1 7 10 7 9 8 10 9 10 10 10 11 11 11 10 9 9 8 8 9 8
7 6 8 14 19 8 9 8 11 10 10 9 13 14 10 12 13 13 12 11 11 11 11 11 11 10 9 9 9 8 10 10
8 8 13 11 15 13 13 6 5 9 1 4 3 12 12 13 15 14 12 11 10 10 12 12 10 10 8 8 8 8 10 8
7 7 7 2 19 14 4 5 11 11 9 9 10 13 15 14 14 14 12 11 10 9 10 10 10 8 9 8 7 9 8 6
6 3 5 11 13 17 20 13 12 10 15 15 12 6 9 9 16 13 12 12 10 9 8 7 7 8 8 7 8 8 7 6
7 5 5 4 7 12 8 4 15 16 13 14 13 11 6 4 3 11 12 10 9 7 8 7 8 7 9 8 7 8 7 6
3 7 8 11 4 14 12 1 14 23 23 23 16 9 6 8 10 11 11 11 12 9 7 8 6 7 9 7 7 7 6 6
4 4 8 7 11 16 13 13 15 21 26 24 18 6 14 15 11 11 13 13 10 9 9 7 7 7 7 6 7 5 6 6
4 4 6 4 5 14 9 20 24 19 26 22 10 20 20 16 15 15 15 13 9 9 7 6 7 7 7 7 5 6 6 6
9 9 6 12 10 6 14 24 23 24 18 16 21 19 19 17 16 15 15 11 9 9 7 6 6 7 7 6 7 7 7 6
5 4 5 8 3 6 16 24 24 20 21 21 21 21 18 15 13 13 11 12 9 10 8 6 6 6 6 7 7 7 7 6
2 5 7 6 6 13 18 19 19 17 22 21 24 19 21 15 13 12 12 9 11 9 7 7 6 6 6 7 7 7 6 5
6 4 4 5 7 10 20 20 18 21 17 17 24 22 16 14 13 13 13 10 9 8 8 7 7 7 6 6 7 7 6 5
6 3 4 1 7 15 20 20 23 23 21 22 13 19 20 17 13 12 12 11 10 10 8 7 7 6 6 7 7 7 6 6
Wind_Direction
168 132 114 178 194 159 106 9 79 227 292 318 105 218 192 208 194 200 206 196 204 184 178 182 181 189 188 187 202 197 207 199
142 75 31 151 147 87 5 119 146 289 269 220 201 228 225 188 210 215 215 204 181 171 166 183 179 182 182 186 197 203 203 206
106 192 193 173 97 61 110 99 145 145 264 211 199 206 190 206 212 193 199 196 193 168 169 166 147 163 181 184 183 191 196 209
218 307 182 1 141 141 123 214 95 146 267 259 208 182 174 197 163 68 59 58 65 104 120 139 125 107 82 56 48 283 304 24
340 357 344 179 204 116 108 85 185 136 257 350 135 103 91 127 112 97 89 87 85 79 88 89 80 74 67 53 42 131 116 102
191 206 165 160 241 182 118 126 167 207 246 80 157 141 114 100 92 86 84 85 85 77 80 79 74 76 67 58 54 70 81 83
219 219 175 197 189 179 173 152 179 194 190 191 178 152 140 121 111 104 97 89 89 92 91 85 82 78 73 65 65 79 86 81
218 179 193 214 226 207 197 125 70 105 283 121 114 113 119 125 126 115 108 100 92 89 97 95 93 92 84 78 70 81 80 74
236 165 138 231 204 192 200 163 144 153 195 131 140 137 139 135 131 129 124 116 108 103 102 100 102 106 97 89 85 80 78 64
191 111 163 233 185 185 189 173 175 128 154 155 140 114 121 140 138 134 127 123 119 115 106 100 104 102 102 95 93 90 81 74
141 171 260 257 154 142 164 215 165 137 130 120 119 102 33 97 91 134 134 129 125 126 126 121 115 116 110 102 103 99 93 87
136 151 200 229 184 178 112 177 179 147 148 145 151 148 211 154 138 127 124 130 134 127 121 117 121 114 105 104 106 108 114 107
149 159 279 238 154 143 141 206 172 170 157 158 172 185 144 142 138 137 137 133 125 126 132 134 128 117 109 111 108 126 116 106
101 120 248 133 127 161 195 153 161 172 164 165 124 121 136 143 144 145 134 133 133 130 132 136 132 119 120 114 128 113 106 95
160 200 232 189 172 159 164 153 170 164 168 148 136 140 149 148 152 147 143 141 137 137 133 141 140 133 130 145 130 123 103 99
96 214 193 210 315 150 159 164 162 163 153 150 142 148 146 148 149 143 146 143 141 136 139 148 156 151 146 144 134 124 121 122
246 259 133 161 221 172 167 156 148 148 153 147 144 156 150 150 149 148 147 143 148 148 145 150 151 146 149 143 134 124 123 125
215 243 169 203 163 150 142 151 149 142 145 160 153 151 147 149 150 149 146 144 142 145 141 152 153 147 151 149 142 138 142 148
260 285 246 357 146 163 152 155 156 154 151 156 156 146 150 148 147 141 143 148 153 157 147 145 147 145 155 153 151 161 174 175